#timestamp,LO_Frequency,Hit,StdDev 
1586487615.7,286047017.5,N
1586487635.5,286047015.8,N
1586487655.3,286047017.9,N
1586487675.2,286047021.5,Y
1586487695.0,286047009.7,P
1586487695.9,286047009.7,P
1586487715.8,286047011.3,P
1586487735.6,286047011.6,Y
1586487755.4,286047004.4,P
1586487775.3,286047003.2,N
1586487795.1,286047004.7,N
1586487815.9,286047006.8,N
1586487835.7,286047009.2,Y
1586487855.5,286047001.7,P
1586487875.4,286047003.7,N
1586487895.2,286047006.4,P
1586487915.1,286047008.9,Y
1586487916.0,286047008.9,P
1586487935.8,286047003.4,N
1586487955.8,286047006.0,N
1586487975.6,286047001.8,N
1586487995.5,286047005.8,N
1586488015.3,286047007.6,Y
1586488035.1,286046996.7,P
1586488055.9,286046995.4,N
1586488075.7,286046995.3,N
1586488095.6,286046996.3,N
1586488115.4,286046993.7,N
1586488135.2,286046994.7,N
1586488155.1,286046992.3,N
1586488156.0,286046992.3,N
1586488175.8,286046991.9,N
1586488195.6,286046993.1,N
1586488215.5,286046992.4,N
1586488235.3,286046995.2,N
1586488255.2,286046998.9,N
1586488275.9,286047002.2,N
1586488295.7,286047000.1,N
1586488315.6,286047002.7,N
1586488335.4,286047002.2,N
1586488355.2,286047001.6,N
1586488375.1,286047000.1,N
1586488376.0,286047000.1,N
1586488395.8,286047004.0,N
1586488415.7,286047001.8,N
1586488435.5,286047004.4,N
1586488485.4,286047000.4,E
1586488495.3,286047000.3,N
1586488515.1,286046998.8,P
1586488535.9,286046998.9,N
1586488555.7,286047003.3,Y
1586488575.5,286047001.2,P
1586488595.4,286047002.6,N
1586488615.2,286047000.4,N
1586488635.0,286047003.6,N
1586488635.9,286047003.6,N
1586488655.8,286047002.2,N
1586488675.6,286047001.1,N
1586488695.5,286047000.4,N
1586488715.3,286047001.0,N
1586488735.1,286047002.4,N
1586488755.9,286047002.3,N
1586488775.7,286047001.8,N
1586488795.5,286046998.2,N
1586488815.4,286047001.3,N
1586488835.2,286047002.0,N
1586488855.1,286047002.4,N
1586488856.0,286047002.4,N
1586488875.8,286047000.4,N
1586488895.6,286047000.5,N
1586488915.5,286047004.4,Y
1586488935.3,286047004.2,P
1586488955.2,286047003.3,N
1586488975.9,286047007.5,P
1586488995.7,286047005.7,N
1586489015.6,286047003.1,N
1586489035.4,286047002.2,N
1586489055.3,286047005.4,N
1586489075.1,286047007.9,Y
1586489076.0,286047007.9,P
1586489095.8,286047004.8,N
1586489115.7,286047006.4,P
1586489135.5,286047009.2,Y
1586489155.4,286047002.4,P
1586489175.2,286047004.3,N
1586489195.0,286047002.6,N
1586489195.9,286047002.6,N
1586489215.8,286047002.0,N
1586489235.6,286046999.8,N
1586489255.4,286046999.8,N
1586489275.3,286047000.6,N
1586489295.1,286047000.3,N
1586489315.9,286047001.4,N
1586489335.7,286047002.2,N
1586489355.5,286047004.5,N
1586489375.4,286047006.3,Y
1586489395.2,286047006.2,P
1586489415.0,286047009.9,P
1586489416.0,286047009.9,P
1586489435.8,286047011.8,Y
1586489455.7,286047005.8,P
1586489475.5,286047002.0,P
1586489495.3,286047001.3,N
1586489515.2,286047001.7,N
1586489535.9,286047005.5,N
1586489555.7,286047006.6,N
1586489575.6,286047003.2,N
1586489595.4,286047004.5,N
1586489615.3,286047005.1,N
1586489635.1,286047004.1,N
1586489636.0,286047004.1,N
1586489655.8,286047005.0,N
1586489675.7,286047004.6,N
1586489695.5,286047009.9,Y
1586489715.4,286047007.9,P
1586489735.2,286047009.2,P
1586489755.0,286047010.8,P
1586489755.9,286047010.8,Y
1586489775.8,286046999.3,P
1586489795.7,286046995.3,N
1586489815.5,286046998.7,N
1586489835.3,286046998.6,N
1586489855.2,286046998.1,N
1586489875.0,286047001.5,N
1586489875.9,286047001.5,N
1586489895.8,286047004.4,N
1586489915.6,286047003.3,N
1586489935.4,286047002.5,N
1586489955.3,286047000.0,N
1586489975.1,286047004.2,N
1586489995.9,286047002.3,N
1586490015.7,286047001.6,N
1586490035.5,286046999.8,N
1586490055.4,286047002.4,N
1586490075.2,286047002.4,N
1586490095.0,286047002.4,N
1586490095.9,286047002.4,N
1586490115.8,286047005.3,N
1586490135.6,286047009.1,Y
1586490155.5,286047004.8,P
1586490175.3,286047004.8,P
1586490195.1,286047004.7,P
1586490215.9,286047006.9,Y
1586490235.7,286047000.1,P
1586490255.5,286047001.0,N
1586490275.4,286047001.6,N
1586490295.2,286047005.1,Y
1586490315.1,286047005.6,P
1586490316.0,286047005.6,N
1586490335.8,286047004.8,N
1586490355.6,286047009.2,Y
1586490375.5,286047006.0,P
1586490395.3,286047004.4,P
1586490415.2,286047001.3,N
1586490435.9,286047001.2,N
1586490455.7,286046999.9,N
1586490475.6,286047001.6,N
1586490495.4,286047004.1,N
1586490515.2,286047002.3,N
1586490535.1,286047002.8,N
1586490536.0,286047002.8,N
1586490555.8,286047000.6,N
1586490575.7,286047002.1,N
1586490595.5,286047002.1,N
1586490615.3,286047002.9,N
1586490635.2,286047006.7,Y
1586490655.0,286047003.0,P
1586490655.9,286047003.0,P
1586490675.8,286047003.7,P
1586490695.6,286047003.0,Y
1586490715.4,286047000.0,P
1586490735.3,286047002.1,N
1586490755.1,286047003.2,N
1586490775.8,286047004.4,Y
1586490795.7,286046998.5,P
1586490815.5,286046999.7,N
1586490835.4,286047000.2,N
1586490855.2,286047003.2,N
1586490875.0,286047006.2,Y
1586490875.9,286047006.2,P
1586490895.8,286047010.3,P
1586490915.6,286047010.1,N
1586490935.5,286047013.8,Y
1586490955.3,286047008.7,P
1586490975.1,286047008.8,P
1586490995.9,286047004.9,P
1586491015.7,286047005.2,Y
1586491035.5,286046999.3,P
1586491055.4,286046999.1,N
1586491075.2,286046998.2,N
1586491095.1,286047000.0,N
1586491096.0,286047000.0,N
1586491115.8,286047000.4,N
1586491135.6,286046998.9,N
1586491155.5,286046996.8,N
1586491175.3,286047001.1,N
1586491195.1,286046997.7,N
